User: anonymous   Login
Location: Arthez
(43.0833°N, 0.2500°W)
Time: 19:22:48
(UTC+00:00)
Language:

NOSS 3-1 (A) - Orbit

View from above orbital plane
View from above orbital plane
View from above satellite
View from above satellite

Ground track
Ground track

The orbit data is extracted from the following two-line orbital elements,

1 26905U 01040A   23307.78140934 0.00000350  00000-0  23783-3 0    05
2 26905  63.3897 188.7683 0573038   6.4533 353.5467 13.40992127    09
Epoch (UTC): 03 November 2023 18:45:13
Eccentricity: 0.0573038
inclination: 63.3897°
perigee height: 677 km
apogee height: 1534 km
right ascension of ascending node: 188.7683°
argument of perigee: 6.4533°
revolutions per day: 13.40992127
mean anomaly at epoch: 353.5467°
orbit number at epoch: 0

The dashed part of the orbit path shows where the satellite is in the earth's shadow,  

DLR